OAO 3 COPERN
1 06153U 72065A   03049.76219135  .00000526  00000-0  12227-3 0  6228
2 06153  35.0057 190.1893 0008061 316.1983  43.8071 14.56024958617432
ATLAS CENTAU
1 06155U 72065B   03049.57579483  .00001366  00000-0  24278-3 0  3087
2 06155  35.0055 111.4011 0040996 176.8415 183.2547 14.66656014622263
OPS 8180 RAD
1 06212U 72076A   03049.70714313  .00011084  00000-0  69084-3 0   170
2 06212  98.6095  64.2623 0003282 298.2107  61.8672 15.09757283771447
AUREOLE 2 R 
1 07004U 73107B   03049.55739643  .00008882  00000-0  42092-3 0   871
2 07004  73.9623  29.3910 0501878  77.0767 288.5949 14.49719378462707
COSMOS 660 R
1 07338U 74044B   03050.23125426  .00014195  00000-0  50420-3 0   886
2 07338  82.9296  60.3211 0364026 168.0411 192.9751 14.83843273451236
DELTA 1 R/B 
1 08063U 75072B   03049.94486730  .00033409  00000-0  11804-2 0  4232
2 08063  89.1970 179.5089 1176874 222.7104 127.6523 13.15191979157234
SL-8 R/B 
1 08459U 75112B   03049.86708643  .00000441  00000-0  16228-3 0   723
2 08459  74.0597 342.7209 0015470  22.9708 337.2128 14.35475578423129
COSMOS 807 R
1 08745U 76022B   03050.32618143  .00024652  00000-0  49208-3 0  1286
2 08745  82.9046 326.1426 0256358 173.9890 186.4311 15.18361946371611
METEOR 1-28 
1 10114U 77057B   03050.16975455  .00003197  00000-0  22427-3 0  1041
2 10114  97.7151 301.3587 0018324 325.1045  34.9020 15.05786556393869
SL-3 R/B 
1 10861U 78045B   03050.28186586  .00008785  00000-0  34051-3 0  1606
2 10861  81.2072 307.5665 0030468  16.9023 343.3210 15.25567888351192
SEASAT 1 
1 10967U 78064A   03049.96627788  .00000498  00000-0  19505-3 0  2444
2 10967 108.0047 191.7452 0001942 230.6580 129.4391 14.41451988292179
COSMOS 1076 
1 11267U 79011B   03050.26796849  .00000671  00000-0  73502-4 0   822
2 11267  82.5260 117.0653 0016928 314.4726  45.5099 14.86252413297778
INTERCOSMOS 
1 11286U 79020B   03050.41862396  .00059654  00000-0  60553-3 0  6395
2 11286  73.9453 356.9415 0052181 109.7307 250.9537 15.63165822295048
SL-3 R/B 
1 11332U 79032B   03050.13535428  .00011982  00000-0  32249-3 0  1648
2 11332  81.2390 260.9289 0026710 183.9768 176.1260 15.37358150304524
COSMOS 1140 
1 11574U 79089B   03049.74056996  .00000417  00000-0  14319-3 0  6960
2 11574  74.0689 143.7254 0016976 298.5621  61.3822 14.39115580224100
COSMOS 1151 
1 11672U 80005B   03049.82244820  .00000903  00000-0  10206-3 0  7033
2 11672  82.5176 326.2818 0018881  13.9501 346.2225 14.85312276246132
SL-3 R/B 
1 11849U 80051B   03049.78497646  .00005394  00000-0  26821-3 0   549
2 11849  97.7682  99.0391 0013973  40.8197 319.4079 15.17997471235999
COSMOS 1206 
1 11933U 80069B   03049.92997078  .00007196  00000-0  30328-3 0  8493
2 11933  81.2186 242.4555 0029694 197.6393 162.3815 15.22770278227840
COSMOS 1220 
1 12054U 80089A   03050.43303404  .00008511  00000-0  52865-3 0  2308
2 12054  64.9789 165.6549 0084856   4.4230 355.7618 15.07259982117706
COSMOS 1238 
1 12139U 81003B   03049.59587741  .00005334  00000-0  35038-3 0  9122
2 12139  82.9622 116.1899 0642169  45.8269 319.3872 14.12618860 99192
COSMOS 1263 
1 12389U 81033B   03049.56963935  .00024040  00000-0  98224-3 0  3789
2 12389  82.9314 169.6123 0513578 168.8972 192.3980 14.51067360 98002
COSMOS 1271 
1 12465U 81046B   03049.91795822  .00002374  00000-0  18001-3 0  2527
2 12465  81.2268 213.2229 0039663 326.3793  33.4902 15.01276622179817
METEOR PRIRO
1 12585U 81065A   03050.19154107  .00002850  00000-0  21169-3 0  8522
2 12585  97.7374 104.5502 0022393  36.5040 323.7694 15.03654356172848
COSMOS 1315 
1 12904U 81103B   03049.66870649  .00002255  00000-0  19662-3 0  1095
2 12904  81.1780  80.0938 0032858 218.2235 141.6638 14.96102597708491
COSMOS 1340 
1 13068U 82013B   03049.93752805  .00002147  00000-0  17929-3 0  1040
2 13068  81.2045  25.2753 0026037 165.9752 194.2170 14.97921753138292
COSMOS 1356 
1 13154U 82039B   03049.88124446  .00002327  00000-0  23089-3 0  9099
2 13154  81.1852 335.5380 0045128 289.9226  69.7128 14.90674116122586
COSMOS 1400 
1 13402U 82079A   03050.37783088  .00006816  00000-0  33566-3 0   558
2 13402  81.1394 335.0838 0011389  27.7095 332.4668 15.17780294117285
COSMOS 1400 
1 13403U 82079B   03050.53385127  .00002288  00000-0  19557-3 0  2240
2 13403  81.1719  84.9280 0043868  83.9549 276.6682 14.96534269112121
SL-3 R/B 
1 13819U 83010B   03049.84800440  .00003271  00000-0  24524-3 0  8800
2 13819  81.1053  77.2143 0039083 266.6524  93.0225 15.01817531 85680
COSMOS 1484 
1 14207U 83075A   03050.51582122  .00008735  00000-0  32570-3 0  5260
2 14207  97.6870  56.0259 0022528 205.5601 154.4448 15.27444809506272
COSMOS 1484 
1 14208U 83075B   03049.91919037  .00002229  00000-0  18508-3 0   231
2 14208  97.9623  51.3274 0028512 220.9690 138.9413 14.99555993 61152
COSMOS 1500 
1 14372U 83099A   03049.93503037  .00004318  00000-0  34328-3 0  6303
2 14372  82.5328  20.2293 0014812 327.0497  32.9798 15.00136987 49936
COSMOS 1508 
1 14484U 83111B   03049.59007415  .00010939  00000-0  45842-3 0  9080
2 14484  82.8565  40.6343 0551059 210.5475 146.2622 14.42868249962802
COSMOS 1536 
1 14699U 84013A   03050.22706571  .00002692  00000-0  23973-3 0  7650
2 14699  82.5309 309.5740 0016681 103.2331 257.0744 14.95575060 29070
COSMOS 1544 
1 14819U 84027A   03049.67335467  .00004259  00000-0  31431-3 0  8456
2 14819  82.5310 110.9017 0014886 116.1378 244.1358 15.02951907 25549
COSMOS 1544 
1 14820U 84027B   03049.85035976  .00000697  00000-0  85646-4 0  3938
2 14820  82.5428 183.5732 0020671  17.5151 342.6763 14.81494723 20816
ERBS 
1 15354U 84108B   03049.65603302  .00001406  00000-0  96113-4 0  3922
2 15354  56.9910 313.2944 0039491 156.6693 203.6139 15.12104189  2040
SL-8 R/B 
1 15483U 85006B   03050.57193290  .00000446  00000-0  16627-3 0  1704
2 15483  74.0414 224.2184 0018650  51.7778 308.5045 14.34754076945915
COSMOS 1656 
1 15772U 85042D   03049.93727778  .00000271  00000-0  14755-3 0  3895
2 15772  71.1015 208.0780 0037733 252.9291 106.7698 14.20453019918281
COSMOS 1674 
1 15945U 85069B   03049.86040553  .00000737  00000-0  90220-4 0  3784
2 15945  82.5276 343.6535 0018467 236.4118 123.5338 14.81805526945706
COSMOS 1689 
1 16111U 85090B   03049.98152692  .00005841  00000-0  32705-3 0  1068
2 16111  97.7226  34.6549 0042044  31.9842 328.3906 15.13068426946698
COSMOS 1697 
1 16182U 85097B   03049.94733306  .00000029  00000-0  39184-4 0  2980
2 16182  70.9992 212.1947 0006375 134.4028 225.7613 14.15801028895564
COSMOS 1726 
1 16496U 86006B   03050.52700599  .00000665  00000-0  80753-4 0  2741
2 16496  82.5227 221.8587 0021617  27.6749 332.5594 14.81902930922066
SL-14 R/B 
1 16792U 86046B   03049.71874179  .00000633  00000-0  78309-4 0  1770
2 16792  82.4798  76.3625 0023655 206.4694 153.5310 14.81037681899931
COSMOS 1766 
1 16882U 86055B   03049.61028750  .00000648  00000-0  80509-4 0  1754
2 16882  82.5199  82.2213 0020539 344.2467  15.8109 14.80972987892949
COSMOS 1812 
1 17295U 87003A   03049.88163701  .00003351  00000-0  27613-3 0  4126
2 17295  82.5264 171.0345 0012554 315.7051  44.3139 14.98725891872097
COSMOS 1825 
1 17567U 87024B   03049.92851601  .00000688  00000-0  84516-4 0   862
2 17567  82.5254  46.5762 0018583 299.7739  60.1631 14.81553025861281
COSMOS 1833 
1 17589U 87027A   03049.97157109 -.00000273  00000-0 -12114-3 0  5643
2 17589  70.9067  18.9475 0006416 346.4656  13.6292 14.12674761821335
COSMOS 1833 
1 17590U 87027B   03049.96784438  .00000238  00000-0  14388-3 0  3322
2 17590  70.9979   3.7670 0004800 339.6094  20.4841 14.16368690823190
SL-14 R/B 
1 17912U 87038B   03049.66015842  .00000573  00000-0  70926-4 0   853
2 17912  82.5003 270.4422 0021410 144.8564 215.4057 14.80865149852871
COSMOS 1844 
1 17973U 87041A   03049.85897435 -.00000110  00000-0 -32930-4 0  5814
2 17973  70.8959 135.8849 0029271  51.1924 309.1804 14.13534238813638
COSMOS 1862 
1 18153U 87055B   03049.85319197  .00000693  00000-0  85880-4 0   916
2 18153  82.5028 327.3077 0023600  12.6427 347.5372 14.81091657843410
COSMOS 1867 
1 18187U 87060A   03049.62563591 -.00000014  00000-0  32604-4 0   434
2 18187  65.0108 108.0216 0018950 257.5100 102.3862 14.30718911815335
COSMOS 1908 
1 18749U 88001B   03049.80858591  .00000757  00000-0  94503-4 0   856
2 18749  82.5158 158.4140 0017840 238.3741 121.5728 14.81042196815546
COSMOS 1933 
1 18958U 88020A   03049.56317707  .00002509  00000-0  23075-3 0  6466
2 18958  82.5297  70.6127 0012450 305.7627  54.2425 14.94358697808162
COSMOS 1939 
1 19046U 88032B   03049.94327739  .00002257  00000-0  21809-3 0  3972
2 19046  97.8702  24.5163 0039495 189.9975 170.0459 14.93289356789802
COSMOS 1943 
1 19120U 88039B   03049.91692008 -.00000167  00000-0 -57501-4 0  6841
2 19120  71.0085 213.0678 0024815 280.7578  79.0762 14.18398749764282
COSMOS 1953 
1 19210U 88050A   03049.94779304  .00003406  00000-0  31919-3 0   533
2 19210  82.5179  10.3658 0015919 284.4934  75.4505 14.93677657794358
COSMOS 1954 
1 19257U 88053B   03049.64229284  .00000380  00000-0  13985-3 0  9991
2 19257  74.0483 102.6968 0021311 212.8571 147.1257 14.35896821767383
COSMOS 1975 
1 19573U 88093A   03050.21923792  .00002297  00000-0  21730-3 0  8328
2 19573  82.5283 310.2307 0017096 289.7073  70.2291 14.93141588776971
COSMOS 1975 
1 19574U 88093B   03049.90973278  .00000731  00000-0  90636-4 0   692
2 19574  82.5331 347.4953 0024737  56.2139 304.1424 14.81131182774482
COSMOS 1980 
1 19650U 88102B   03049.93106417 -.00000217  00000-0 -86458-4 0  3066
2 19650  70.9953 213.3496 0015961 226.8694 133.1094 14.15385306735566
